DECAYED

STARLINK-1475, 45739 (Decayed)

Orbit data source: Space-Track

STARLINK-1475, 45739 was a payload satellite owned by SpaceX/Seattle (US) in LEO that was launched on Sat, 13 Jun 2020 UTC via an FALCON 9 launch vehicle from the Air Force Eastern Test Range (AFETR). Payload-class satellites include a variety of spacecraft equipped with specific instruments for various scientific and technological missions. These include communications satellites like Starlink; space stations such as the ISS; scientific satellites like the Hubble; Earth observation satellites from companies like Planet Labs, Umbra, and HawkEye 360; GPS; miniature CubeSats for education and research; and military/defense satellites.

Not visible in the next 10 days
Identifier
45739, 2020-038K
Orbit
Decayed
Country
Flag of USUS
Related business
Manufacturer
SpaceX/Seattle
Mission
Decayed Commercial Communications
Bus & Motor
STARLINK, Unknown motor
Mass
260 kg wet, ~248 kg dry
Launch date (UTC)
2020-06-13 (6 years ago)
Launch vehicle
FALCON 9
Launch site
Air Force Eastern Test Range (AFETR)
Object type
Payload
Rocket body
Debris
Shape & HBR
Box + 1 Pan, 10.1 m
Radar Cross Section
13.562 m², Large (>1 m²)

Expand to show TLE details & history
Last TLE update: 2 months ago

TLE from 2 months ago
0 STARLINK-1475
1 45739U 20038K   25347.78230856  .07467270  12518-4  45900-3 0  9996
2 45739  53.0284  98.8715 0008836 332.5769  27.4811 16.41213359305545
Epoch: 2025-12-13T18:46Z
TLE epoch observation values (Epoch: 2025-12-13T18:46:31.459Z)
Latitude
0.00003°
Longitude
94.5358°
Altitude
158.378 km
Speed
7.816 km/s
True Right ascension
06h 35m 29s
True Declination
0° 00' 00"
Sunlit
Object was in full shadow at epoch
Visualization orbit readout
Latitude
Unknown
Longitude
Unknown
Altitude
Unknown
Speed
Unknown
Apparent Right ascension
Unknown
Apparent Declination
Unknown
Sunlit
N/A
Visualization observer readout
Local Sidereal Time
18:33:55
Azimuth
Unknown
Elevation
Unknown
Doppler factor
Unknown
Orbital elements
Apogee altitude
168.647 km
Perigee altitude
157.088 km
Semi-major axis
6,541.004 km
Eccentricity
0.00088
Inclination
53.0284°
RAAN
98.8715°
Arg. of periapsis
332.5769°
True anomaly
27.52787°
Mean anomaly
27.4811°
Eccentric anomaly
27.50448°
Mean motion
4.10276 °/min
Orbital period
87.75 mins
BSTAR
0.000459
Loading maneuver chart data...
Computing Atmospheric mass density...

Documentation

Showing up to 5 results
|